| time (UTC) | temp F | wind direction | speed MPH | gust MPH | rain 1hr in | rain 24hr in | rain mn in | humidity % | barometer mb |
| 20260506160702 | 66 | 235 | 1.0 | 7.0 | 0.04 | 0.06 | 0.06 | 100 | 1009.3 |
| 20260506155922 | 67 | 167 | 1.0 | 5.0 | 0.04 | 0.06 | 0.06 | 100 | 1009.4 |
| 20260506155825 | 67 | 187 | 1.0 | 7.0 | 0.02 | 0.04 | 0.04 | 100 | 1009.6 |
| 20260506154806 | 67 | 190 | 1.0 | 5.0 | 0.03 | 0.04 | 0.04 | 100 | 1009.6 |
| 20260506154242 | 67 | 225 | 0.0 | 5.0 | 0.02 | 0.03 | 0.03 | 100 | 1009.7 |
| 20260506153716 | 66 | 183 | 1.0 | 8.0 | 0.01 | 0.02 | 0.02 | 100 | 1009.7 |
| 20260506153200 | 66 | 183 | 1.0 | 8.0 | 0.02 | 0.02 | 0.02 | 100 | 1009.8 |
| 20260506152701 | 66 | 188 | 0.0 | 7.0 | 0.02 | 0.02 | 0.02 | 100 | 1009.9 |
| 20260506152153 | 66 | 147 | 0.0 | 7.0 | 0.02 | 0.02 | 0.02 | 100 | 1010.0 |
| 20260506151606 | 67 | 162 | 1.0 | 9.0 | 0.02 | 0.02 | 0.02 | 100 | 1010.0 |
| 20260506151359 | 67 | 195 | 1.0 | 6.0 | 0.02 | 0.02 | 0.02 | 100 | 1010.0 |
| 20260506150305 | 67 | 191 | 0.0 | 5.0 | 0.02 | 0.02 | 0.02 | 100 | 1010.0 |
| 20260506150241 | 67 | 201 | 0.0 | 0.0 | 0.02 | 0.02 | 0.02 | 100 | 1009.9 |
| 20260506145147 | 67 | 201 | 0.0 | 0.0 | 0.01 | 0.01 | 0.01 | 100 | 1010.1 |
| 20260506144608 | 67 | 201 | 0.0 | 5.0 | 0.01 | 0.01 | 0.01 | 100 | 1010.0 |
| 20260506144535 | 66 | 201 | 0.0 | 5.0 | 0.01 | 0.01 | 0.01 | 100 | 1009.9 |
| 20260506143540 | 66 | 202 | 0.0 | 4.0 | 0.00 | 0.00 | 0.00 | 8 | 1010.0 |
| 20260506143122 | 66 | 202 | 0.0 | 4.0 | 0.00 | 0.00 | 0.00 | 17 | 1009.9 |
| 20260506142617 | 67 | 202 | 0.0 | 7.0 | 0.00 | 0.00 | 0.00 | 24 | 1009.8 |
| 20260506141940 | 67 | 202 | 1.0 | 2.0 | 0.00 | 0.00 | 0.00 | 32 | 1009.9 |
| 20260506141739 | 67 | 186 | 1.0 | 7.0 | 0.00 | 0.00 | 0.00 | 36 | 1009.6 |
| 20260506141127 | 67 | 221 | 1.0 | 4.0 | 0.00 | 0.00 | 0.00 | 38 | 1009.8 |
| 20260506140931 | 67 | 221 | 1.0 | 4.0 | 0.00 | 0.00 | 0.00 | 38 | 1009.8 |
| 20260506140257 | 67 | 228 | 1.0 | 11.0 | 0.00 | 0.00 | 0.00 | 38 | 1009.8 |
| 20260506140011 | 68 | 229 | 1.0 | 10.0 | 0.00 | 0.00 | 0.00 | 38 | 1009.9 |
| 20260506140000 | 68 | 197 | 1.0 | 11.0 | 0.00 | 0.00 | 0.00 | 38 | 1009.8 |
| 20260506134402 | 68 | 188 | 1.0 | 10.0 | 0.00 | 0.00 | 0.00 | 38 | 1009.8 |
| 20260506133739 | 67 | 182 | 1.0 | 14.0 | 0.00 | 0.00 | 0.00 | 38 | 1009.7 |
| 20260506133200 | 67 | 168 | 1.0 | 14.0 | 0.00 | 0.00 | 0.00 | 38 | 1009.7 |
| 20260506132648 | 67 | 181 | 1.0 | 8.0 | 0.00 | 0.00 | 0.00 | 38 | 1009.6 |
| 20260506132037 | 67 | 159 | 1.0 | 8.0 | 0.00 | 0.00 | 0.00 | 37 | 1009.7 |
| 20260506131813 | 67 | 53 | 2.0 | 9.0 | 0.00 | 0.00 | 0.00 | 37 | 1009.5 |
| 20260506131743 | 67 | 167 | 1.0 | 7.0 | 0.00 | 0.00 | 0.00 | 36 | 1009.5 |
| 20260506131131 | 67 | 132 | 2.0 | 8.0 | 0.00 | 0.00 | 0.00 | 37 | 1009.5 |
| 20260506125752 | 67 | 171 | 1.0 | 6.0 | 0.00 | 0.00 | 0.00 | 36 | 1009.6 |
| 20260506125205 | 67 | 172 | 1.0 | 5.0 | 0.00 | 0.00 | 0.00 | 36 | 1009.5 |
| 20260506124501 | 67 | 261 | 1.0 | 8.0 | 0.00 | 0.00 | 0.00 | 37 | 1009.4 |
| 20260506123432 | 67 | 200 | 1.0 | 11.0 | 0.00 | 0.00 | 0.00 | 36 | 1009.5 |
| 20260506122900 | 67 | 242 | 1.0 | 11.0 | 0.00 | 0.00 | 0.00 | 36 | 1009.7 |
| 20260506122400 | 66 | 224 | 1.0 | 15.0 | 0.00 | 0.00 | 0.00 | 36 | 1009.9 |
| 20260506121906 | 66 | 134 | 1.0 | 9.0 | 0.00 | 0.00 | 0.00 | 36 | 1010.0 |
| 20260506121851 | 66 | 284 | 1.0 | 10.0 | 0.00 | 0.00 | 0.00 | 36 | 1009.9 |
| 20260506121830 | 66 | 232 | 1.0 | 15.0 | 0.00 | 0.00 | 0.00 | 36 | 1009.9 |
| 20260506120455 | 66 | 130 | 1.0 | 9.0 | 0.00 | 0.00 | 0.00 | 36 | 1010.0 |
| 20260506120248 | 66 | 130 | 1.0 | 9.0 | 0.00 | 0.00 | 0.00 | 36 | 1010.0 |
| 20260506115521 | 66 | 180 | 1.0 | 6.0 | 0.00 | 0.00 | 0.00 | 36 | 1010.0 |
| 20260506114930 | 66 | 168 | 1.0 | 9.0 | 0.00 | 0.00 | 0.00 | 36 | 1010.1 |
| 20260506114343 | 66 | 180 | 1.0 | 9.0 | 0.00 | 0.00 | 0.00 | 35 | 1009.9 |
| 20260506113756 | 66 | 162 | 1.0 | 10.0 | 0.00 | 0.00 | 0.00 | 34 | 1009.9 |
| 20260506113545 | 65 | 204 | 0.0 | 10.0 | 0.00 | 0.00 | 0.00 | 33 | 1009.8 |
| 20260506112617 | 65 | 172 | 0.0 | 7.0 | 0.00 | 0.00 | 0.00 | 33 | 1009.8 |
| 20260506112412 | 65 | 227 | 1.0 | 8.0 | 0.00 | 0.00 | 0.00 | 33 | 1009.8 |
| 20260506112153 | 65 | 227 | 1.0 | 8.0 | 0.00 | 0.00 | 0.00 | 33 | 1009.8 |
| 20260506111549 | 64 | 198 | 2.0 | 8.0 | 0.00 | 0.00 | 0.00 | 34 | 1009.9 |
| 20260506111117 | 64 | 156 | 1.0 | 10.0 | 0.00 | 0.00 | 0.00 | 34 | 1009.7 |
| 20260506111051 | 64 | 233 | 0.0 | 10.0 | 0.00 | 0.00 | 0.00 | 34 | 1009.6 |
| 20260506111024 | 64 | 165 | 1.0 | 7.0 | 0.00 | 0.00 | 0.00 | 34 | 1009.7 |
| 20260506105447 | 64 | 152 | 1.0 | 12.0 | 0.00 | 0.00 | 0.00 | 33 | 1009.7 |
| 20260506105246 | 64 | 194 | 1.0 | 12.0 | 0.00 | 0.00 | 0.00 | 33 | 1009.7 |
| 20260506104730 | 64 | 182 | 1.0 | 12.0 | 0.00 | 0.00 | 0.00 | 33 | 1009.6 |
| 20260506103822 | 64 | 179 | 2.0 | 5.0 | 0.00 | 0.00 | 0.00 | 32 | 1009.5 |
| 20260506103758 | 64 | 175 | 2.0 | 12.0 | 0.00 | 0.00 | 0.00 | 32 | 1009.4 |
| 20260506102543 | 64 | 188 | 1.0 | 9.0 | 0.00 | 0.00 | 0.00 | 31 | 1009.6 |
| 20260506102519 | 64 | 173 | 1.0 | 13.0 | 0.00 | 0.00 | 0.00 | 31 | 1009.5 |
| 20260506101315 | 64 | 234 | 1.0 | 9.0 | 0.00 | 0.00 | 0.00 | 30 | 1009.5 |
| 20260506100720 | 64 | 186 | 1.0 | 12.0 | 0.00 | 0.00 | 0.00 | 30 | 1009.6 |
| 20260506100234 | 64 | 179 | 1.0 | 12.0 | 0.00 | 0.00 | 0.00 | 29 | 1009.5 |
| 20260506095917 | 64 | 184 | 1.0 | 11.0 | 0.00 | 0.00 | 0.00 | 29 | 1009.6 |
| 20260506095105 | 64 | 252 | 1.0 | 7.0 | 0.00 | 0.00 | 0.00 | 28 | 1009.5 |
| 20260506094459 | 64 | 213 | 0.0 | 6.0 | 0.00 | 0.00 | 0.00 | 27 | 1009.6 |
| 20260506093922 | 64 | 216 | 0.0 | 6.0 | 0.00 | 0.00 | 0.00 | 27 | 1009.5 |
| 20260506093721 | 64 | 256 | 0.0 | 10.0 | 0.00 | 0.00 | 0.00 | 26 | 1009.6 |
| 20260506092731 | 64 | 161 | 1.0 | 10.0 | 0.00 | 0.00 | 0.00 | 26 | 1009.4 |
| 20260506092138 | 64 | 203 | 1.0 | 12.0 | 0.00 | 0.00 | 0.00 | 26 | 1009.5 |
| 20260506091549 | 64 | 176 | 1.0 | 12.0 | 0.00 | 0.00 | 0.00 | 26 | 1009.5 |
| 20260506091017 | 64 | 210 | 1.0 | 12.0 | 0.00 | 0.00 | 0.00 | 26 | 1009.5 |
| 20260506090950 | 64 | 187 | 1.0 | 12.0 | 0.00 | 0.00 | 0.00 | 26 | 1009.6 |
| 20260506085926 | 64 | 155 | 0.0 | 10.0 | 0.00 | 0.00 | 0.00 | 26 | 1009.6 |
| 20260506085315 | 64 | 186 | 1.0 | 15.0 | 0.00 | 0.00 | 0.00 | 26 | 1009.6 |
| 20260506084744 | 64 | 195 | 2.0 | 15.0 | 0.00 | 0.00 | 0.00 | 27 | 1009.6 |
| 20260506084212 | 64 | 219 | 1.0 | 13.0 | 0.00 | 0.00 | 0.00 | 27 | 1009.6 |
| 20260506083629 | 64 | 169 | 0.0 | 7.0 | 0.00 | 0.00 | 0.00 | 27 | 1009.7 |
| 20260506083047 | 65 | 194 | 1.0 | 6.0 | 0.00 | 0.00 | 0.00 | 28 | 1009.6 |
| 20260506082512 | 65 | 175 | 1.0 | 9.0 | 0.00 | 0.00 | 0.00 | 28 | 1009.5 |
| 20260506081942 | 65 | 175 | 1.0 | 9.0 | 0.00 | 0.00 | 0.00 | 29 | 1009.6 |
| 20260506081349 | 65 | 171 | 1.0 | 12.0 | 0.00 | 0.00 | 0.00 | 30 | 1009.7 |
| 20260506080824 | 65 | 172 | 1.0 | 2.0 | 0.00 | 0.00 | 0.00 | 30 | 1009.6 |
| 20260506080312 | 65 | 235 | 1.0 | 12.0 | 0.00 | 0.00 | 0.00 | 31 | 1009.7 |
| 20260506073427 | 65 | 182 | 0.0 | 5.0 | 0.00 | 0.00 | 0.00 | 34 | 1009.8 |
| 20260506072821 | 65 | 182 | 1.0 | 8.0 | 0.00 | 0.00 | 0.00 | 35 | 1010.0 |
| 20260506072245 | 65 | 186 | 1.0 | 8.0 | 0.00 | 0.00 | 0.00 | 36 | 1010.0 |
| 20260506071718 | 65 | 202 | 0.0 | 8.0 | 0.00 | 0.00 | 0.00 | 37 | 1010.0 |
| 20260506071200 | 66 | 206 | 1.0 | 8.0 | 0.00 | 0.00 | 0.00 | 38 | 1010.0 |
| 20260506070856 | 66 | 169 | 1.0 | 0.0 | 0.00 | 0.00 | 0.00 | 39 | 1010.0 |
| 20260506070115 | 66 | 233 | 1.0 | 11.0 | 0.00 | 0.00 | 0.00 | 41 | 1009.9 |
| 20260506062501 | 67 | 201 | 1.0 | 9.0 | 0.00 | 0.00 | 0.00 | 47 | 1010.0 |
| 20260506062427 | 67 | 196 | 1.0 | 9.0 | 0.00 | 0.00 | 0.00 | 47 | 1010.0 |
| 20260506062207 | 67 | 196 | 1.0 | 9.0 | 0.00 | 0.00 | 0.00 | 47 | 1010.0 |
| 20260506061724 | 67 | 198 | 1.0 | 9.0 | 0.00 | 0.00 | 0.00 | 48 | 1010.0 |
| 20260506060829 | 68 | 188 | 1.0 | 6.0 | 0.00 | 0.00 | 0.00 | 51 | 1010.1 |
| 20260506060803 | 67 | 183 | 0.0 | 9.0 | 0.00 | 0.00 | 0.00 | 49 | 1010.1 |
| 20260506060604 | 68 | 182 | 1.0 | 4.0 | 0.00 | 0.00 | 0.00 | 50 | 1010.1 |
| 20260506060551 | 68 | 198 | 1.0 | 10.0 | 0.00 | 0.00 | 0.00 | 50 | 1010.1 |
| 20260506051042 | 69 | 187 | 1.0 | 4.0 | 0.00 | 0.00 | 0.00 | 54 | 1010.6 |
| 20260506050529 | 69 | 197 | 1.0 | 13.0 | 0.00 | 0.00 | 0.00 | 54 | 1010.5 |
| 20260506044903 | 69 | 240 | 1.0 | 8.0 | 0.00 | 0.00 | 0.00 | 55 | 1010.5 |
| 20260506043651 | 69 | 150 | 2.0 | 12.0 | 0.00 | 0.00 | 0.00 | 55 | 1010.5 |
| 20260506043104 | 69 | 159 | 1.0 | 12.0 | 0.00 | 0.00 | 0.00 | 56 | 1010.4 |
| 20260506042535 | 69 | 182 | 2.0 | 12.0 | 0.00 | 0.00 | 0.00 | 56 | 1010.6 |
| 20260506042134 | 69 | 174 | 1.0 | 9.0 | 0.00 | 0.00 | 0.00 | 56 | 1010.5 |
| 20260506041611 | 69 | 205 | 1.0 | 12.0 | 0.00 | 0.00 | 0.00 | 56 | 1010.5 |
| 20260506041102 | 69 | 194 | 1.0 | 12.0 | 0.00 | 0.00 | 0.00 | 56 | 1010.5 |
| 20260506040450 | 69 | 178 | 1.0 | 7.0 | 0.00 | 0.00 | 0.00 | 57 | 1010.6 |
| 20260506035640 | 69 | 199 | 1.0 | 8.0 | 0.00 | 0.00 | 0.00 | 57 | 1010.6 |
| 20260506035104 | 69 | 62 | 1.0 | 8.0 | 0.00 | 0.00 | 0.00 | 57 | 1010.5 |
| 20260506034528 | 69 | 174 | 1.0 | 8.0 | 0.00 | 0.00 | 0.00 | 57 | 1010.5 |
| 20260506033949 | 69 | 192 | 0.0 | 4.0 | 0.00 | 0.00 | 0.00 | 58 | 1010.6 |
| 20260506033515 | 69 | 191 | 0.0 | 7.0 | 0.00 | 0.00 | 0.00 | 58 | 1010.4 |
| 20260506033428 | 69 | 190 | 0.0 | 7.0 | 0.00 | 0.00 | 0.00 | 58 | 1010.5 |
| 20260506032638 | 69 | 182 | 0.0 | 6.0 | 0.00 | 0.00 | 0.00 | 58 | 1010.5 |
| 20260506031719 | 70 | 183 | 0.0 | 6.0 | 0.00 | 0.00 | 0.00 | 57 | 1010.5 |
| 20260506031710 | 69 | 183 | 0.0 | 5.0 | 0.00 | 0.00 | 0.00 | 58 | 1010.5 |
| 20260506031131 | 70 | 183 | 0.0 | 5.0 | 0.00 | 0.00 | 0.00 | 58 | 1010.5 |
| 20260506030853 | 70 | 183 | 0.0 | 6.0 | 0.00 | 0.00 | 0.00 | 57 | 1010.5 |
| 20260506025933 | 70 | 184 | 0.0 | 6.0 | 0.00 | 0.00 | 0.00 | 57 | 1010.6 |
| 20260506025404 | 71 | 184 | 0.0 | 2.0 | 0.00 | 0.00 | 0.00 | 57 | 1010.6 |
| 20260506024827 | 71 | 184 | 0.0 | 1.0 | 0.00 | 0.00 | 0.00 | 57 | 1010.7 |
| 20260506024251 | 71 | 184 | 0.0 | 2.0 | 0.00 | 0.00 | 0.00 | 57 | 1010.7 |
| 20260506023716 | 72 | 184 | 0.0 | 4.0 | 0.00 | 0.00 | 0.00 | 56 | 1010.7 |
| 20260506023145 | 72 | 184 | 0.0 | 1.0 | 0.00 | 0.00 | 0.00 | 55 | 1010.8 |
| 20260506022628 | 72 | 184 | 0.0 | 1.0 | 0.00 | 0.00 | 0.00 | 54 | 1010.7 |
| 20260506022036 | 73 | 184 | 0.0 | 0.0 | 0.00 | 0.00 | 0.00 | 52 | 1010.7 |
| 20260506021457 | 73 | 184 | 0.0 | 4.0 | 0.00 | 0.00 | 0.00 | 52 | 1010.7 |
| 20260506020907 | 73 | 184 | 0.0 | 5.0 | 0.00 | 0.00 | 0.00 | 51 | 1010.6 |
| 20260506020328 | 73 | 184 | 1.0 | 5.0 | 0.00 | 0.00 | 0.00 | 51 | 1010.6 |
| 20260506015803 | 73 | 187 | 1.0 | 5.0 | 0.00 | 0.00 | 0.00 | 51 | 1010.6 |
| 20260506015231 | 73 | 188 | 0.0 | 0.0 | 0.00 | 0.00 | 0.00 | 50 | 1010.5 |
| 20260506014639 | 74 | 190 | 1.0 | 6.0 | 0.00 | 0.00 | 0.00 | 49 | 1010.4 |
| 20260506014549 | 74 | 171 | 0.0 | 5.0 | 0.00 | 0.00 | 0.00 | 49 | 1010.4 |
| 20260506013547 | 74 | 163 | 0.0 | 2.0 | 0.00 | 0.00 | 0.00 | 48 | 1010.4 |
| 20260506012953 | 74 | 229 | 0.0 | 8.0 | 0.00 | 0.00 | 0.00 | 48 | 1010.2 |
| 20260506012938 | 74 | 188 | 1.0 | 6.0 | 0.00 | 0.00 | 0.00 | 48 | 1010.3 |
| 20260506011824 | 74 | 190 | 1.0 | 8.0 | 0.00 | 0.00 | 0.00 | 47 | 1010.2 |
| 20260506011305 | 75 | 177 | 1.0 | 9.0 | 0.00 | 0.00 | 0.00 | 47 | 1010.0 |
| 20260506010632 | 75 | 177 | 1.0 | 9.0 | 0.00 | 0.00 | 0.00 | 46 | 1009.9 |
| 20260506010008 | 75 | 158 | 0.0 | 5.0 | 0.00 | 0.00 | 0.00 | 46 | 1009.9 |
| 20260506005413 | 75 | 216 | 0.0 | 6.0 | 0.00 | 0.00 | 0.00 | 45 | 1009.8 |
| 20260506005109 | 75 | 141 | 0.0 | 6.0 | 0.00 | 0.00 | 0.00 | 45 | 1009.8 |
| 20260506004428 | 75 | 213 | 0.0 | 7.0 | 0.00 | 0.00 | 0.00 | 45 | 1009.7 |
| 20260506004153 | 76 | 190 | 1.0 | 7.0 | 0.00 | 0.00 | 0.00 | 44 | 1009.6 |
| 20260506003132 | 76 | 82 | 1.0 | 12.0 | 0.00 | 0.00 | 0.00 | 44 | 1009.6 |
| 20260506002639 | 76 | 193 | 0.0 | 12.0 | 0.00 | 0.00 | 0.00 | 44 | 1009.4 |
| 20260506002253 | 76 | 198 | 1.0 | 8.0 | 0.00 | 0.00 | 0.00 | 44 | 1009.4 |
| 20260506001451 | 77 | 199 | 1.0 | 9.0 | 0.00 | 0.00 | 0.00 | 43 | 1009.4 |
| 20260506000858 | 77 | 210 | 1.0 | 9.0 | 0.00 | 0.00 | 0.00 | 42 | 1009.4 |
| 20260506000556 | 77 | 186 | 1.0 | 15.0 | 0.00 | 0.00 | 0.00 | 42 | 1009.2 |
| 20260505235831 | 77 | 203 | 1.0 | 15.0 | 0.00 | 0.00 | 0.00 | 41 | 1009.2 |
| 20260505235256 | 78 | 175 | 0.0 | 7.0 | 0.00 | 0.00 | 0.00 | 41 | 1009.2 |
| 20260505234830 | 78 | 177 | 0.0 | 7.0 | 0.00 | 0.00 | 0.00 | 41 | 1009.1 |
| 20260505234418 | 78 | 192 | 0.0 | 7.0 | 0.00 | 0.00 | 0.00 | 41 | 1009.1 |
| 20260505233645 | 78 | 207 | 0.0 | 5.0 | 0.00 | 0.00 | 0.00 | 40 | 1009.1 |
| 20260505233111 | 79 | 207 | 1.0 | 5.0 | 0.00 | 0.00 | 0.00 | 40 | 1009.0 |
| 20260505232603 | 79 | 209 | 1.0 | 11.0 | 0.00 | 0.00 | 0.00 | 39 | 1009.0 |
| 20260505232041 | 79 | 159 | 1.0 | 11.0 | 0.00 | 0.00 | 0.00 | 39 | 1009.0 |
| 20260505231528 | 79 | 187 | 0.0 | 6.0 | 0.00 | 0.00 | 0.00 | 38 | 1009.0 |
| 20260505230929 | 80 | 187 | 1.0 | 6.0 | 0.00 | 0.00 | 0.00 | 38 | 1009.0 |
| 20260505230357 | 80 | 193 | 1.0 | 7.0 | 0.00 | 0.00 | 0.00 | 37 | 1009.1 |
| 20260505225759 | 80 | 190 | 0.0 | 6.0 | 0.00 | 0.00 | 0.00 | 37 | 1008.9 |
| 20260505225232 | 80 | 185 | 1.0 | 2.0 | 0.00 | 0.00 | 0.00 | 37 | 1008.9 |
| 20260505224857 | 80 | 186 | 1.0 | 15.0 | 0.00 | 0.00 | 0.00 | 36 | 1008.9 |
| 20260505224058 | 81 | 197 | 1.0 | 10.0 | 0.00 | 0.00 | 0.00 | 36 | 1008.8 |
| 20260505223805 | 81 | 196 | 1.0 | 9.0 | 0.00 | 0.00 | 0.00 | 35 | 1008.8 |
| 20260505222954 | 81 | 205 | 1.0 | 7.0 | 0.00 | 0.00 | 0.00 | 35 | 1008.8 |
| 20260505222355 | 82 | 178 | 1.0 | 7.0 | 0.00 | 0.00 | 0.00 | 35 | 1008.8 |
| 20260505221826 | 82 | 171 | 2.0 | 8.0 | 0.00 | 0.00 | 0.00 | 35 | 1008.9 |
| 20260505221745 | 82 | 187 | 1.0 | 8.0 | 0.00 | 0.00 | 0.00 | 34 | 1008.9 |
| 20260505220846 | 82 | 197 | 1.0 | 8.0 | 0.00 | 0.00 | 0.00 | 33 | 1008.8 |
| 20260505220427 | 82 | 174 | 1.0 | 10.0 | 0.00 | 0.00 | 0.00 | 33 | 1008.8 |
| 20260505215655 | 83 | 166 | 1.0 | 10.0 | 0.00 | 0.00 | 0.00 | 32 | 1008.8 |
| 20260505214953 | 83 | 204 | 1.0 | 13.0 | 0.00 | 0.00 | 0.00 | 33 | 1008.7 |
| 20260505214648 | 83 | 208 | 1.0 | 13.0 | 0.00 | 0.00 | 0.00 | 32 | 1008.8 |
| 20260505213956 | 83 | 206 | 2.0 | 11.0 | 0.00 | 0.00 | 0.00 | 32 | 1008.8 |
| 20260505213315 | 83 | 160 | 1.0 | 10.0 | 0.00 | 0.00 | 0.00 | 32 | 1008.6 |
| 20260505213013 | 84 | 181 | 0.0 | 10.0 | 0.00 | 0.00 | 0.00 | 31 | 1008.6 |
| 20260505212219 | 84 | 241 | 1.0 | 14.0 | 0.00 | 0.00 | 0.00 | 32 | 1008.7 |
| 20260505211653 | 85 | 240 | 2.0 | 14.0 | 0.00 | 0.00 | 0.00 | 31 | 1008.7 |
| 20260505211124 | 85 | 185 | 1.0 | 9.0 | 0.00 | 0.00 | 0.00 | 31 | 1008.6 |
| 20260505210555 | 85 | 225 | 1.0 | 13.0 | 0.00 | 0.00 | 0.00 | 31 | 1008.7 |
| 20260505210356 | 86 | 180 | 1.0 | 13.0 | 0.00 | 0.00 | 0.00 | 30 | 1008.6 |
| 20260505205731 | 86 | 211 | 1.0 | 8.0 | 0.00 | 0.00 | 0.00 | 30 | 1008.7 |
| 20260505204326 | 85 | 113 | 1.0 | 13.0 | 0.00 | 0.00 | 0.00 | 30 | 1008.6 |
| 20260505203758 | 85 | 305 | 1.0 | 7.0 | 0.00 | 0.00 | 0.00 | 31 | 1008.7 |
| 20260505203233 | 85 | 183 | 2.0 | 10.0 | 0.00 | 0.00 | 0.00 | 31 | 1008.8 |
| 20260505202710 | 85 | 169 | 3.0 | 5.0 | 0.00 | 0.00 | 0.00 | 31 | 1008.8 |
| 20260505202139 | 85 | 209 | 3.0 | 16.0 | 0.00 | 0.00 | 0.00 | 31 | 1008.8 |
| 20260505201607 | 85 | 196 | 3.0 | 16.0 | 0.00 | 0.00 | 0.00 | 32 | 1008.8 |
| 20260505201038 | 85 | 208 | 2.0 | 12.0 | 0.00 | 0.00 | 0.00 | 32 | 1009.0 |
| 20260505200511 | 85 | 254 | 2.0 | 12.0 | 0.00 | 0.00 | 0.00 | 31 | 1009.2 |
| 20260505195932 | 85 | 245 | 2.0 | 11.0 | 0.00 | 0.00 | 0.00 | 32 | 1009.3 |
| 20260505195405 | 86 | 183 | 2.0 | 9.0 | 0.00 | 0.00 | 0.00 | 32 | 1009.3 |
| 20260505194842 | 85 | 221 | 2.0 | 10.0 | 0.00 | 0.00 | 0.00 | 32 | 1009.4 |
| 20260505194533 | 85 | 244 | 2.0 | 12.0 | 0.00 | 0.00 | 0.00 | 32 | 1009.7 |
| 20260505194500 | 86 | 230 | 3.0 | 10.0 | 0.00 | 0.00 | 0.00 | 32 | 1009.7 |
| 20260505194437 | 85 | 218 | 2.0 | 10.0 | 0.00 | 0.00 | 0.00 | 33 | 1009.3 |
| 20260505193232 | 86 | 230 | 3.0 | 10.0 | 0.00 | 0.00 | 0.00 | 32 | 1009.7 |
| 20260505192833 | 86 | 302 | 2.0 | 14.0 | 0.00 | 0.00 | 0.00 | 32 | 1009.8 |
| 20260505191858 | 85 | 153 | 2.0 | 19.0 | 0.00 | 0.00 | 0.00 | 34 | 1009.9 |
| 20260505191231 | 85 | 169 | 2.0 | 19.0 | 0.00 | 0.00 | 0.00 | 34 | 1009.9 |
| 20260505191149 | 84 | 230 | 1.0 | 9.0 | 0.00 | 0.00 | 0.00 | 35 | 1010.0 |
| 20260505190111 | 84 | 228 | 1.0 | 10.0 | 0.00 | 0.00 | 0.00 | 35 | 1010.1 |
| 20260505185407 | 83 | 163 | 1.0 | 9.0 | 0.00 | 0.00 | 0.00 | 38 | 1010.2 |
| 20260505184824 | 82 | 194 | 1.0 | 9.0 | 0.00 | 0.00 | 0.00 | 43 | 1010.2 |
| 20260505184527 | 82 | 188 | 1.0 | 6.0 | 0.00 | 0.00 | 0.00 | 45 | 1010.4 |
| 20260505183655 | 82 | 216 | 2.0 | 8.0 | 0.00 | 0.00 | 0.00 | 42 | 1010.4 |
| 20260505183212 | 81 | 167 | 1.0 | 8.0 | 0.00 | 0.00 | 0.00 | 44 | 1010.4 |
| 20260505182654 | 81 | 125 | 1.0 | 8.0 | 0.00 | 0.00 | 0.00 | 46 | 1010.4 |
| 20260505182505 | 81 | 144 | 1.0 | 3.0 | 0.00 | 0.00 | 0.00 | 46 | 1010.6 |
| 20260505182021 | 81 | 144 | 1.0 | 3.0 | 0.00 | 0.00 | 0.00 | 46 | 1010.6 |
| 20260505181356 | 81 | 126 | 2.0 | 10.0 | 0.00 | 0.00 | 0.00 | 45 | 1010.5 |
| 20260505181105 | 82 | 153 | 2.0 | 12.0 | 0.00 | 0.00 | 0.00 | 44 | 1010.6 |
| 20260505180917 | 82 | 127 | 1.0 | 6.0 | 0.00 | 0.00 | 0.00 | 44 | 1010.7 |
| 20260505175725 | 82 | 137 | 3.0 | 8.0 | 0.00 | 0.00 | 0.00 | 42 | 1010.7 |
| 20260505175209 | 83 | 169 | 2.0 | 14.0 | 0.00 | 0.00 | 0.00 | 39 | 1010.6 |
| 20260505175041 | 83 | 188 | 2.0 | 13.0 | 0.00 | 0.00 | 0.00 | 39 | 1010.6 |
| 20260505175026 | 83 | 163 | 1.0 | 8.0 | 0.00 | 0.00 | 0.00 | 38 | 1010.7 |
| 20260505173439 | 82 | 165 | 2.0 | 11.0 | 0.00 | 0.00 | 0.00 | 38 | 1011.0 |
| 20260505173358 | 83 | 167 | 2.0 | 11.0 | 0.00 | 0.00 | 0.00 | 38 | 1010.7 |
| 20260505172742 | 82 | 185 | 2.0 | 11.0 | 0.00 | 0.00 | 0.00 | 38 | 1010.8 |
| 20260505171614 | 82 | 186 | 2.0 | 11.0 | 0.00 | 0.00 | 0.00 | 38 | 1010.9 |
| 20260505171321 | 82 | 247 | 2.0 | 9.0 | 0.00 | 0.00 | 0.00 | 39 | 1011.0 |
| 20260505170506 | 81 | 210 | 1.0 | 9.0 | 0.00 | 0.00 | 0.00 | 39 | 1011.1 |
| 20260505165952 | 81 | 238 | 1.0 | 8.0 | 0.00 | 0.00 | 0.00 | 39 | 1011.2 |
| 20260505165924 | 81 | 153 | 1.0 | 8.0 | 0.00 | 0.00 | 0.00 | 39 | 1011.3 |
| 20260505164943 | 80 | 265 | 1.0 | 8.0 | 0.00 | 0.00 | 0.00 | 41 | 1011.3 |
| 20260505164446 | 80 | 171 | 1.0 | 8.0 | 0.00 | 0.00 | 0.00 | 42 | 1011.4 |
| 20260505163913 | 79 | 169 | 2.0 | 11.0 | 0.00 | 0.00 | 0.00 | 41 | 1011.4 |
| 20260505163156 | 79 | 272 | 2.0 | 11.0 | 0.00 | 0.00 | 0.00 | 40 | 1011.4 |
| 20260505162622 | 79 | 161 | 1.0 | 7.0 | 0.00 | 0.00 | 0.00 | 42 | 1011.5 |
| 20260505162556 | 79 | 189 | 1.0 | 11.0 | 0.00 | 0.00 | 0.00 | 43 | 1011.5 |
| 20260505162221 | 79 | 189 | 1.0 | 11.0 | 0.00 | 0.00 | 0.00 | 43 | 1011.5 |
| 20260505162000 | 78 | 258 | 1.0 | 11.0 | 0.00 | 0.00 | 0.00 | 42 | 1011.7 |
| 20260505161726 | 78 | 219 | 1.0 | 9.0 | 0.00 | 0.00 | 0.00 | 43 | 1011.7 |
| 20260505161042 | 78 | 219 | 1.0 | 9.0 | 0.00 | 0.00 | 0.00 | 43 | 1011.7 |